Regional Weather Roundup
Issued by NWS Columbia, SC

Home | Current Version | Previous Version | Text Only | Print | Product List | Glossary On
Versions: 1 2 3 4 5 6 7 8 9 10 11 12 13 14 15 16 17 18 19 20 21 22 23 24 25 26 27 28 29 30 31 32 33 34 35 36 37 38 39 40 41 42 43 44 45 46 47 48 49 50
000
ASUS42 KCAE 201610
RWRCAE
REGIONAL WEATHER ROUNDUP
NATIONAL WEATHER SERVICE COLUMBIA SC
1100 AM EST MON NOV 20 2017

NOTE: "FAIR" INDICATES FEW OR NO CLOUDS BELOW 12,000 FEET WITH NO
SIGNIFICANT WEATHER AND/OR OBSTRUCTIONS TO VISIBILITY.

NOT ALL STATIONS ARE QUALITY CONTROLLED BY THE NATIONAL
WEATHER SERVICE. USE DATA WITH CAUTION...ESPECIALLY
DEWPOINT OBSERVATIONS.

SCZ001>056-GAZ040-063>065-077-201700-
...UPSTATE SOUTH CAROLINA...

CITY           SKY/WX    TMP DP  RH WIND       PRES   REMARKS
ANDERSON       SUNNY     49  33  54 CALM      30.28R
LIBERTY        SUNNY     49  32  51 CALM      30.26R
SPARTANBURG    SUNNY     46  18  31 NE3       30.27S
CLEMSON        SUNNY     45  35  68 VRB3      30.28R
GREENVILLE     SUNNY     51  29  42 SE3       30.28R
GREENWOOD      SUNNY     49  29  46 CALM      30.29S
GREER          SUNNY     49  27  42 E3        30.28R
ROCK HILL      SUNNY     50  28  42 CALM      30.28F
CHESTER        SUNNY     48  23  37 CALM      30.29S
LAURENS        SUNNY     46  27  46 E3        30.28S


...CENTRAL SOUTH CAROLINA...

CITY           SKY/WX    TMP DP  RH WIND       PRES   REMARKS
COLUMBIA APT   MOSUNNY   53  32  44 CALM      30.29R
COLUMBIA OWENS SUNNY     52  28  39 VRB5      30.30R
ORANGEBURG     SUNNY     52  30  43 VRB6      30.29R
NEWBERRY       SUNNY     50  32  50 CALM      30.31S
AIKEN          FAIR      50  30  46 E5        30.31S
BARNWELL         N/A     54  30  40 E7        30.29S
MANNING        FAIR      52  32  46 MISG      30.29S
CAMDEN         FAIR      52  27  37 CALM      30.30R
LANCASTER      SUNNY     50  27  40 SE5       30.29F
WINNSBORO      SUNNY     50  28  43 NE5       30.28S


...EASTERN AND COASTAL SOUTH CAROLINA...

CITY           SKY/WX    TMP DP  RH WIND       PRES   REMARKS
MYRTLE BEACH   SUNNY     54  30  40 N10       30.29S
N MYRTLE BCH   SUNNY     54  29  38 NE9       30.27S
CONWAY         FAIR      52  32  46 N6        30.29S HAZE
MARION         FAIR      52  27  37 N5        30.30R
HARTSVILLE     FAIR      52  27  37 CALM      30.29S
FLORENCE       SUNNY     53  28  38 NE3       30.30R
DARLINGTON     SUNNY     52  29  41 VRB6      30.30R
CHARLESTON APT MOSUNNY   55  31  39 NE8       30.27F
MOUNT PLEASANT FAIR      55  32  41 N5        30.27F
WALTERBORO     SUNNY     52  32  46 NE6       30.29S
BEAUFORT       MOSUNNY   56  34  43 NE8       30.28S


...EASTERN GEORGIA...

CITY           SKY/WX    TMP DP  RH WIND       PRES   REMARKS
AUGUSTA BUSH F SUNNY     52  33  48 E3        30.28S
AUGUSTA DANIEL SUNNY     52  29  41 CALM      30.29R
THOMSON        SUNNY     50  31  49 S3        30.33S
WASHINGTON     FAIR      50  30  46 E6        30.28S
CLAXTON        FAIR      57  33  41 NE6       30.27F
SYLVANIA       SUNNY     54  35  47 E5        30.29S
STATESBORO     SUNNY     56  26  31 E5        30.27F
SAVANNAH       MOSUNNY   59  34  39 NE7       30.27S


...SOUTHERN NORTH CAROLINA...

CITY           SKY/WX    TMP DP  RH WIND       PRES   REMARKS
CHARLOTTE      MOSUNNY   50  27  40 CALM      30.28S
MONROE         SUNNY     50  26  39 N3        30.28S
WADESBORO      SUNNY     47  27  45 CALM      30.30S
RUTHERFORDTON  SUNNY     46  27  46 CALM      30.27F
ASHEVILLE      SUNNY     43  23  45 N5        30.24F

$$



USA.gov is the U.S. government's official web portal to all federal, state and local government web resources and services.